Tracking 30009 objects as of 7-Dec-2024
HD Live streaming from Space Station
objects crossing your sky now

STARLINK-30568

Track STARLINK-30568 now!
10-day predictions
STARLINK-30568 is classified as:


NORAD ID: 58051
Int'l Code: 2023-158A
Perigee: 565.4 km
Apogee: 567.0 km
Inclination: 43.0 °
Period: 95.8 minutes
Semi major axis: 6937 km
RCS: Unknown
Launch date: October 13, 2023
Source: United States (US)
Launch site: AIR FORCE EASTERN TEST RANGE (AFETR)
Your satellite tracking list
Your tracking list is empty




NASA's NSSDC Master Catalog

Two Line Element Set (TLE):
1 58051U 23158A   24342.09376183  .00001035  00000-0  91706-4 0  9996
2 58051  43.0052 357.0738 0001165 255.1010 104.9704 15.02534072 64526
Source of the keplerian elements: AFSPC